• In Russia
  • List of Countries
  • For 7 days
  • Water Temperature
  • Satellite Maps
  • Weather Map
  • Weather Widgets
  • user-avatar
    Login

    Hourly Weather Raciula

    Today, 23 October, Tuesday

    Time Temperature Precipitation Wind Pressure Humidity
    00:00 +9°C° 0 mm 1 mps 750 mmHg 59%
    01:00 +9°C° 0 mm 1 mps 750 mmHg 60%
    02:00 +8°C° 0 mm 1 mps 750 mmHg 63%
    03:00 +8°C° 0 mm 1 mps 750 mmHg 64%
    04:00 +7°C° 0 mm 1 mps 750 mmHg 66%
    05:00 +7°C° 0 mm 1 mps 749 mmHg 67%
    06:00 +8°C° 0 mm 1 mps 749 mmHg 64%
    07:00 +8°C° 0 mm 1 mps 749 mmHg 62%
    08:00 +8°C° 0 mm 2 mps 749 mmHg 57%
    09:00 +9°C° 0 mm 2 mps 749 mmHg 53%
    10:00 +12°C° 0 mm 2 mps 748 mmHg 49%
    11:00 +13°C° 0 mm 2 mps 748 mmHg 46%
    12:00 +13°C° 0 mm 3 mps 747 mmHg 45%
    13:00 +14°C° 0 mm 3 mps 746 mmHg 44%
    14:00 +14°C° 0 mm 4 mps 746 mmHg 45%
    15:00 +14°C° 0 mm 3 mps 745 mmHg 47%
    16:00 +14°C° 0 mm 2 mps 744 mmHg 50%
    17:00 +14°C° 0 mm 2 mps 743 mmHg 52%
    18:00 +12°C° 0 mm 3 mps 742 mmHg 54%
    19:00 +12°C° 0 mm 4 mps 742 mmHg 55%
    20:00 +12°C° 0 mm 5 mps 741 mmHg 57%
    21:00 +11°C° 0.1 mm 6 mps 740 mmHg 58%
    22:00 +11°C° 0.1 mm 6 mps 739 mmHg 60%
    23:00 +11°C° 0.1 mm 6 mps 739 mmHg 62%

    Tomorrow, 24 October, Wednesday

    Time Temperature Precipitation Wind Pressure Humidity
    00:00 +11°C° 0.4 mm 7 mps 738 mmHg 62%
    01:00 +10°C° 0.4 mm 7 mps 737 mmHg 61%
    02:00 +10°C° 0.4 mm 7 mps 736 mmHg 61%
    03:00 +10°C° 0.1 mm 7 mps 735 mmHg 60%
    04:00 +10°C° 0.1 mm 7 mps 734 mmHg 59%
    05:00 +10°C° 0.1 mm 7 mps 733 mmHg 58%
    06:00 +10°C° 0.1 mm 7 mps 732 mmHg 57%
    07:00 +10°C° 0.1 mm 7 mps 732 mmHg 56%
    08:00 +10°C° 0.1 mm 7 mps 731 mmHg 55%
    09:00 +10°C° 0.7 mm 7 mps 731 mmHg 58%
    10:00 +10°C° 0.7 mm 7 mps 730 mmHg 61%
    11:00 +9°C° 0.7 mm 7 mps 730 mmHg 64%
    12:00 +10°C° 0.2 mm 8 mps 730 mmHg 56%
    13:00 +10°C° 0.2 mm 8 mps 729 mmHg 48%
    14:00 +11°C° 0.2 mm 9 mps 729 mmHg 40%
    15:00 +10°C° 0.1 mm 8 mps 730 mmHg 45%
    16:00 +9°C° 0.1 mm 8 mps 730 mmHg 50%
    17:00 +7°C° 0.1 mm 8 mps 731 mmHg 55%
    18:00 +6°C° 0 mm 8 mps 732 mmHg 55%
    19:00 +5°C° 0 mm 8 mps 732 mmHg 54%
    20:00 +5°C° 0 mm 8 mps 733 mmHg 54%
    21:00 +4°C° 0 mm 8 mps 733 mmHg 56%
    22:00 +4°C° 0 mm 8 mps 734 mmHg 58%
    23:00 +2°C° 0 mm 8 mps 734 mmHg 60%

    Day after tomorrow, 25 October, Thursday

    Time Temperature Precipitation Wind Pressure Humidity
    00:00 +3°C° 0.1 mm 9 mps 734 mmHg 59%
    01:00 +3°C° 0.1 mm 10 mps 734 mmHg 59%
    02:00 +3°C° 0.1 mm 10 mps 735 mmHg 59%
    03:00 +3°C° 0.1 mm 10 mps 735 mmHg 60%
    04:00 +5°C° 0.1 mm 10 mps 735 mmHg 61%
    05:00 +4°C° 0.1 mm 11 mps 736 mmHg 62%
    06:00 +4°C° 0.1 mm 11 mps 736 mmHg 61%
    07:00 +5°C° 0.1 mm 10 mps 737 mmHg 61%
    08:00 +5°C° 0.1 mm 10 mps 738 mmHg 60%
    09:00 +5°C° 0 mm 10 mps 738 mmHg 57%
    10:00 +5°C° 0 mm 10 mps 739 mmHg 55%
    11:00 +6°C° 0 mm 10 mps 739 mmHg 52%
    12:00 +6°C° 0 mm 9 mps 739 mmHg 50%
    13:00 +7°C° 0 mm 9 mps 739 mmHg 47%
    14:00 +7°C° 0 mm 8 mps 739 mmHg 45%
    15:00 +8°C° 0 mm 7 mps 739 mmHg 45%
    16:00 +7°C° 0 mm 5 mps 739 mmHg 44%
    17:00 +8°C° 0 mm 3 mps 739 mmHg 44%
    18:00 +8°C° 0.1 mm 3 mps 739 mmHg 46%
    19:00 +7°C° 0.1 mm 4 mps 739 mmHg 48%
    20:00 +6°C° 0.1 mm 4 mps 739 mmHg 51%
    21:00 +6°C° 0.1 mm 5 mps 738 mmHg 55%
    22:00 +6°C° 0.1 mm 5 mps 738 mmHg 58%
    23:00 +5°C° 0.1 mm 6 mps 737 mmHg 62%

    26 October, Friday

    Time Temperature Precipitation Wind Pressure Humidity
    00:00 +7°C° 0.3 mm 6 mps 738 mmHg 64%
    01:00 +8°C° 0.3 mm 6 mps 738 mmHg 66%
    02:00 +8°C° 0.3 mm 6 mps 738 mmHg 68%
    03:00 +7°C° 0 mm 6 mps 739 mmHg 69%
    04:00 +7°C° 0 mm 6 mps 739 mmHg 71%
    05:00 +5°C° 0 mm 6 mps 740 mmHg 72%
    06:00 +5°C° 0 mm 6 mps 740 mmHg 71%
    07:00 +5°C° 0 mm 6 mps 741 mmHg 71%
    08:00 +5°C° 0 mm 6 mps 742 mmHg 70%
    09:00 +8°C° 0 mm 6 mps 742 mmHg 64%
    10:00 +9°C° 0 mm 7 mps 742 mmHg 57%
    11:00 +10°C° 0 mm 7 mps 743 mmHg 51%
    12:00 +11°C° 0 mm 6 mps 743 mmHg 48%
    13:00 +11°C° 0 mm 6 mps 743 mmHg 46%
    14:00 +13°C° 0 mm 6 mps 743 mmHg 43%
    15:00 +12°C° 0 mm 4 mps 743 mmHg 45%
    16:00 +12°C° 0 mm 3 mps 744 mmHg 47%
    17:00 +12°C° 0 mm 2 mps 744 mmHg 50%
    18:00 +11°C° 0 mm 1 mps 744 mmHg 52%
    19:00 +11°C° 0 mm 1 mps 744 mmHg 54%
    20:00 +10°C° 0 mm 1 mps 745 mmHg 56%
    21:00 +10°C° 0 mm 1 mps 745 mmHg 58%
    22:00 +9°C° 0 mm 2 mps 745 mmHg 59%
    23:00 +8°C° 0 mm 2 mps 745 mmHg 61%

    27 October, Saturday

    Time Temperature Precipitation Wind Pressure Humidity
    00:00 +8°C° 0 mm 2 mps 745 mmHg 64%
    01:00 +8°C° 0 mm 2 mps 744 mmHg 67%
    02:00 +8°C° 0 mm 2 mps 744 mmHg 70%
    03:00 +8°C° 0 mm 3 mps 744 mmHg 71%
    04:00 +8°C° 0 mm 3 mps 744 mmHg 71%
    05:00 +8°C° 0 mm 3 mps 743 mmHg 72%
    06:00 +8°C° 0 mm 3 mps 743 mmHg 70%
    07:00 +9°C° 0 mm 3 mps 743 mmHg 67%
    08:00 +10°C° 0 mm 3 mps 743 mmHg 65%
    09:00 +11°C° 0.1 mm 4 mps 743 mmHg 61%
    10:00 +13°C° 0.1 mm 4 mps 743 mmHg 57%
    11:00 +15°C° 0.1 mm 4 mps 742 mmHg 53%
    12:00 +17°C° 0.1 mm 4 mps 742 mmHg 51%
    13:00 +18°C° 0.1 mm 4 mps 742 mmHg 50%
    14:00 +19°C° 0.1 mm 4 mps 742 mmHg 48%
    15:00 +18°C° 0.1 mm 3 mps 742 mmHg 53%
    16:00 +17°C° 0.1 mm 2 mps 742 mmHg 58%
    17:00 +16°C° 0.1 mm 2 mps 742 mmHg 63%
    18:00 +15°C° 0 mm 2 mps 742 mmHg 68%
    19:00 +14°C° 0 mm 1 mps 743 mmHg 73%
    20:00 +13°C° 0 mm 1 mps 743 mmHg 78%
    21:00 +13°C° 0 mm 1 mps 744 mmHg 80%
    22:00 +13°C° 0 mm 1 mps 744 mmHg 82%
    23:00 +12°C° 0 mm 1 mps 744 mmHg 84%

    28 October, Sunday

    Time Temperature Precipitation Wind Pressure Humidity
    00:00 +12°C° 0 mm 1 mps 744 mmHg 85%
    01:00 +11°C° 0 mm 1 mps 745 mmHg 86%
    02:00 +11°C° 0 mm 1 mps 745 mmHg 87%
    03:00 +11°C° 0 mm 1 mps 745 mmHg 87%
    04:00 +11°C° 0 mm 1 mps 745 mmHg 88%
    05:00 +9°C° 0 mm 2 mps 745 mmHg 89%
    06:00 +11°C° 0 mm 1 mps 745 mmHg 87%
    07:00 +11°C° 0 mm 1 mps 746 mmHg 85%
    08:00 +12°C° 0 mm 1 mps 746 mmHg 83%
    09:00 +14°C° 0 mm 2 mps 746 mmHg 75%
    10:00 +16°C° 0 mm 2 mps 746 mmHg 66%
    11:00 +18°C° 0 mm 2 mps 746 mmHg 58%
    12:00 +19°C° 0 mm 2 mps 746 mmHg 53%
    13:00 +21°C° 0 mm 2 mps 746 mmHg 48%
    14:00 +23°C° 0 mm 2 mps 746 mmHg 44%
    15:00 +21°C° 0 mm 2 mps 746 mmHg 46%
    16:00 +20°C° 0 mm 2 mps 746 mmHg 49%
    17:00 +19°C° 0 mm 2 mps 746 mmHg 51%
    18:00 +19°C° 0 mm 2 mps 746 mmHg 52%
    19:00 +18°C° 0 mm 3 mps 746 mmHg 53%
    20:00 +17°C° 0 mm 3 mps 746 mmHg 54%
    21:00 +17°C° 0 mm 3 mps 746 mmHg 57%
    22:00 +17°C° 0 mm 3 mps 746 mmHg 59%
    23:00 +16°C° 0 mm 3 mps 746 mmHg 61%

    29 October, Monday

    Time Temperature Precipitation Wind Pressure Humidity
    00:00 +16°C° 0 mm 3 mps 746 mmHg 66%
    01:00 +14°C° 0 mm 3 mps 745 mmHg 71%
    02:00 +14°C° 0 mm 3 mps 745 mmHg 76%
    03:00 +13°C° 0 mm 3 mps 745 mmHg 80%
    04:00 +13°C° 0 mm 3 mps 745 mmHg 84%
    05:00 +13°C° 0 mm 3 mps 745 mmHg 88%
    06:00 +13°C° 0 mm 3 mps 745 mmHg 89%
    07:00 +13°C° 0 mm 3 mps 745 mmHg 90%
    08:00 +13°C° 0 mm 3 mps 745 mmHg 91%
    09:00 +15°C° 0 mm 4 mps 745 mmHg 83%
    10:00 +17°C° 0 mm 4 mps 744 mmHg 74%
    11:00 +19°C° 0 mm 5 mps 744 mmHg 66%
    12:00 +20°C° 0 mm 5 mps 744 mmHg 61%
    13:00 +21°C° 0 mm 5 mps 744 mmHg 56%
    14:00 +22°C° 0 mm 5 mps 743 mmHg 50%
    15:00 +21°C° 0 mm 5 mps 743 mmHg 52%
    16:00 +21°C° 0 mm 4 mps 743 mmHg 54%
    17:00 +20°C° 0 mm 3 mps 743 mmHg 56%
    18:00 +19°C° 0 mm 3 mps 743 mmHg 57%
    19:00 +19°C° 0 mm 4 mps 743 mmHg 57%
    20:00 +18°C° 0 mm 4 mps 743 mmHg 58%
    21:00 +18°C° 0 mm 3 mps 743 mmHg 58%
    22:00 +17°C° 0 mm 2 mps 744 mmHg 58%
    23:00 +17°C° 0 mm 2 mps 744 mmHg 58%
    Show more